CZ-2F R/B (46390 NORAD) Tracking and Keplerian Element Data

This shows tracking and keplerian element data for the satellite.

Feedback or suggestion? Click here.




ElementValue
Catalog46390
NameCZ-2F R/B
Epoch Orbit4774
Epoch Day182.28874689
Epoch Year2021
RAAN239.0903
Inclination50.1712
Eccentricity0.0007795
Argument of Perigee296.291
Mean Anonmoly63.9094
Mean Motion16.54443464
Decay Rate0.23468418
L11 46390U 20063B 21182.28874689 .23468418 12743-4 12750-3 0 9994
L22 46390 50.1712 239.0903 0007795 296.2910 63.9094 16.54443464 47747



Live tracking and technical data element details for CZ-2F R/B (NORAD 46390). CZ-2F R/B can be tracked NOW for your location showing map with azimuth and elevation plus other details from your city location.







IsCatalogInMostPopularTable: catalog: 46390, numindb: 200
Update: records affected: 1



GetName: 46390 CZ-2F R/B

Hit Count: updated at: Fri, 19 Apr 2024 12:19:51 GMT